www.pogodaiklimat.ru

Погода и климат >> Архив погоды >> Бельгия >> Бюзеноль


ПОГОДА в Бюзеноле

  • Прогноз погоды в Бюзеноле
  • Монитор погоды в Бюзеноле

АРХИВ ПОГОДЫ в Бюзеноле

Время (UTC), дата Ветер
(напр.,м/с)
 
Видим.   Явления Облачность Т
(С)
Тd
(С)
f
(%)
Тe
(С)
Тes
(С)
Комфортность P
(гПа)
Po
(гПа)
Тmin
(С)
Tmax
(С)
R
(мм)
R24
(мм)
S
(см)
07 12.05 В 4 н/о н/о +5.9 +2.2 77 +2 +2 1032.5 992.4 86
08 12.05 В 3 н/о н/о +7.5 +2.4 70 +5 +5 1032.9 993.0 85
09 12.05 СВ 4 н/о н/о +8.2 +1.9 64 +5 +5 1032.8 993.1 160
10 12.05 В 5 н/о н/о +10.0 +1.9 57 +7 +7 1033.1 993.5 216
11 12.05 СВ 5 н/о н/о +10.7 +2.3 56 +8 +8 1033.0 993.6 223
12 12.05 В 4 н/о н/о +11.2 +1.5 51 +9 +9 1033.0 993.6 168
13 12.05 В 4 н/о н/о +11.6 +1.6 50 +10 +10 1033.2 993.9 158
14 12.05 В 6 н/о н/о +12.5 +1.7 48 +10 +10 1033.2 994.1 184
15 12.05 СВ 5 н/о н/о +12.0 +0.7 46 +10 +10 1033.7 994.5 143
16 12.05 СВ 5 н/о н/о +12.1 +0.9 46 +10 +10 1033.9 994.6 152
17 12.05 СВ 5 н/о н/о +11.8 +0.5 46 +10 +10 1034.3 994.9 87
18 12.05 В 4
{11}
н/о н/о +11.2 +0.2 47 +9 +9 1034.6 995.2 +12.7 41
19 12.05 В 3 н/о н/о +9.4 0.0 52 +8 +8 1035.4 995.7 19
20 12.05 СВ 3 н/о н/о +7.8 +1.0 62 +5 +5 1036.2 996.1
21 12.05 СВ 3 н/о н/о +6.0 +1.6 73 +3 +3 1036.9 996.6
22 12.05 СВ 4 н/о н/о +5.2 +1.7 78 +1 +1 1037.2 996.7
23 12.05 СВ 3 н/о н/о +3.6 +1.7 87 -0 -0 1037.5 996.9
00 13.05 СВ 4 н/о н/о +4.4 +1.4 81 0 0 1037.4 996.9 177
01 13.05 СВ 4 н/о н/о +4.2 +1.2 81 -0 -0 1037.4 996.8
02 13.05 СВ 5 н/о н/о +4.3 +1.3 81 -1 -1 1037.5 997.0
03 13.05 СВ 3 н/о н/о +3.8 +1.1 83 0 0 1037.6 997.0
04 13.05 В 4 н/о н/о +4.2 +1.1 80 -0 -0 1037.7 997.2
05 13.05 В 4 н/о н/о +4.8 +1.2 77 +1 +1 1037.9 997.5 7
06 13.05 В 4
{7}
н/о н/о +5.9 +1.5 73 +2 +2 1037.7 997.5 +3.6 38
07 13.05 В 4 н/о н/о +7.8 +0.8 61 +5 +5 1037.6 997.5 86
08 13.05 В 4 н/о н/о +9.6 -0.8 48 +7 +7 1037.4 997.6 126
09 13.05 В 5 н/о н/о +10.5 -2.8 39 +8 +8 1037.4 997.7 178
10 13.05 В 6 н/о н/о +11.5 -3.9 34 +9 +9 1037.3 997.7 223
11 13.05 ЮВ 7 н/о н/о +13.0 -5.0 28 +11 +11 1036.8 997.4 255
12 13.05 В 6 н/о н/о +13.5 -6.2 25 +12 +12 1036.2 996.9 268
13 13.05 В 5 н/о н/о +14.1 -3.7 29 +13 +13 1035.6 996.5 262
14 13.05 В 7 н/о н/о +14.3 -2.9 30 +13 +13 1034.8 995.7 242
15 13.05 В 6 н/о н/о +14.8 -3.1 29 +13 +13 1034.3 995.3 208
16 13.05 В 6 н/о н/о +14.6 -1.3 33 +13 +13 1034.2 995.2 165
17 13.05 В 5 н/о н/о +14.3 -2.3 32 +13 +13 1033.9 994.8 117
18 13.05 В 6
{13}
н/о н/о +13.5 -2.3 33 +12 +12 1033.9 994.8 +14.9 68
19 13.05 В 4 н/о н/о +11.9 -2.3 37 +10 +10 1034.4 995.0 20
20 13.05 СВ 4 н/о н/о +10.0 -1.3 45 +8 +8 1034.8 995.1
21 13.05 СВ 4 н/о н/о +9.0 -1.1 49 +7 +7 1034.8 995.0
22 13.05 СВ 4 н/о н/о +7.9 -1.0 53 +5 +5 1035.2 995.3
23 13.05 СВ 4 н/о н/о +7.0 -1.1 56 +4 +4 1035.0 994.9
00 14.05 СВ 2 н/о н/о +6.0 -1.3 59 +4 +4 1034.9 994.7 227
01 14.05 СВ 2 н/о н/о +5.5 -1.5 61 +3 +3 1034.5 994.3
02 14.05 СВ 3 н/о н/о +4.9 -1.7 62 +2 +2 1034.1 993.7
03 14.05 СВ 3 н/о н/о +4.5 -1.4 65 +1 +1 1033.9 993.5
04 14.05 СВ 2 н/о н/о +3.6 -1.4 70 +1 +1 1034.0 993.5
05 14.05 В 2 н/о н/о +4.7 -0.7 68 +2 +2 1033.9 993.6 8
06 14.05 В 3
{6}
н/о н/о +6.8 -0.3 61 +4 +4 1033.4 993.4 +3.4 43
07 14.05 В 5 н/о н/о +8.7 -0.2 54 +6 +6 1032.9 993.2 90
08 14.05 В 6 н/о н/о +9.8 0.0 50 +7 +7 1032.4 992.9 140
09 14.05 В 5 н/о н/о +11.5 -1.3 41 +9 +9 1031.7 992.3 190
10 14.05 В 6 н/о н/о +12.0 -5.4 29 +10 +10 1031.1 991.9 209
11 14.05 В 6 н/о н/о +12.7 -3.4 32 +11 +11 1030.8 991.7 245
12 14.05 В 5 н/о н/о +13.4 -1.2 36 +12 +12 1030.0 991.0 264
13 14.05 ЮВ 6 н/о н/о +14.6 -1.7 32 +13 +13 1029.5 990.6 260
14 14.05 В 6 н/о н/о +14.4 -0.8 35 +13 +13 1028.6 989.7 240
15 14.05 ЮВ 6 н/о н/о +14.5 -0.1 37 +13 +13 1028.1 989.4 207
16 14.05 В 6 н/о н/о +14.4 0.0 37 +13 +13 1027.3 988.6 165
17 14.05 ЮВ 4 н/о н/о +14.5 +0.6 39 +14 +14 1027.0 988.2 117
18 14.05 ЮВ 4
{13}
н/о н/о +13.7 0.0 39 +13 +13 1027.0 988.1 +14.8 67
19 14.05 ЮВ 3 н/о н/о +11.9 0.0 44 +11 +11 1027.3 988.2 22
20 14.05 СВ 2 н/о н/о +9.0 +1.8 61 +8 +8 1027.9 988.5
21 14.05 СВ 2 н/о н/о +7.2 +2.4 72 +5 +5 1028.3 988.6
22 14.05 СВ 2 н/о н/о +6.0 +1.7 74 +4 +4 1028.6 988.6
23 14.05 СВ 2 н/о н/о +3.7 +1.5 86 +1 +1 1028.7 988.4
00 15.05 СВ 3 н/о н/о +5.6 +1.1 73 +2 +2 1028.2 988.2 227
01 15.05 СВ 3 н/о н/о +4.9 +0.2 72 +2 +2 1027.7 987.6
02 15.05 СВ 3 н/о н/о +4.9 -0.1 70 +2 +2 1027.4 987.4
03 15.05 В 3 н/о н/о +4.7 -0.3 70 +1 +1 1027.6 987.5
04 15.05 СВ 3 н/о н/о +3.2 -0.5 77 -1 -1 1027.5 987.2
05 15.05 В 3 н/о н/о +5.0 -0.2 69 +2 +2 1027.3 987.3 8
06 15.05 В 3
{5}
н/о н/о +6.8 +0.5 64 +4 +4 1027.0 987.3 +3.2 44
07 15.05 В 4 н/о н/о +9.0 +0.8 56 +6 +6 1026.5 987.0 91
08 15.05 В 5 н/о н/о +10.2 -0.1 49 +8 +8 1026.3 987.0 141
09 15.05 В 5 н/о н/о +11.5 +0.5 47 +9 +9 1025.5 986.4 188
10 15.05 В 5 н/о н/о +12.2 +0.4 44 +10 +10 1024.7 985.8 227
11 15.05 ЮВ 5 н/о н/о +13.2 -2.1 35 +12 +12 1023.8 985.0 253
12 15.05 В 6 н/о н/о +13.9 -2.8 31 +12 +12 1023.2 984.5 266
13 15.05 ЮВ 6 н/о н/о +14.9 -3.0 29 +14 +14 1022.5 984.0 263
14 15.05 В 5 н/о н/о +15.2 -1.7 31 +14 +14 1022.0 983.6 243
15 15.05 ЮВ 5 н/о н/о +15.5 -1.7 31 +15 +15 1021.5 983.1 210
16 15.05 ЮВ 3 н/о н/о +15.2 -2.0 31 +15 +15 1021.1 982.7 167
17 15.05 ЮВ 4 н/о н/о +15.2 -2.0 31 +14 +14 1021.1 982.7 118
18 15.05 ЮВ 2
{11}
н/о н/о +14.4 -2.0 32 +14 +14 1021.0 982.5 +15.7 68
19 15.05 ЮВ 3 н/о н/о +12.0 -2.5 36 +11 +11 1021.5 982.6 21
20 15.05 В 2 н/о н/о +10.1 -1.6 44 +9 +9 1022.1 983.0
21 15.05 В 2 н/о н/о +8.0 -0.5 55 +6 +6 1022.0 982.6
22 15.05 СВ 2 н/о н/о +5.5 +0.5 70 +3 +3 1022.5 982.6
23 15.05 СВ 3 н/о н/о +4.3 +0.7 77 +1 +1 1022.4 982.4
00 16.05 В 3 н/о н/о +6.0 -0.5 63 +3 +3 1021.3 981.6 231
01 16.05 В 3 н/о н/о +5.7 -0.9 62 +3 +3 1021.4 981.6
02 16.05 В 2 н/о н/о +5.1 -0.9 65 +3 +3 1020.9 981.2
03 16.05 В 3 н/о н/о +4.8 -1.2 65 +2 +2 1020.5 980.7
04 16.05 В 2 н/о н/о +4.5 -1.2 66 +2 +2 1020.2 980.3
05 16.05 СВ 3 н/о н/о +4.1 -0.4 72 +1 +1 1020.1 980.2 7
06 16.05 СВ 3
{5}
н/о н/о +6.4 +0.7 67 +4 +4 1019.3 979.8 +3.4 43
07 16.05 В 3 н/о н/о +9.2 +1.7 59 +7 +7 1018.8 979.7 90
08 16.05 В 5 н/о н/о +10.6 +1.5 53 +8 +8 1018.3 979.4 112
09 16.05 В 5 н/о н/о +12.0 +1.7 49 +10 +10 1017.5 978.9 187
10 16.05 В 5 н/о н/о +12.2 +1.6 48 +10 +10 1016.9 978.3 219
11 16.05 В 5 н/о н/о +13.4 +3.4 51 +12 +12 1015.8 977.4 226
12 16.05 В 5 н/о н/о +13.8 +2.9 48 +12 +12 1015.3 976.8 230
13 16.05 В 5 н/о н/о +15.3 +4.4 48 +14 +14 1014.3 976.1 261
14 16.05 В 4 н/о н/о +15.8 +4.5 47 +15 +15 1013.1 975.1 240
15 16.05 СВ 3 н/о н/о +15.4 +4.5 48 +15 +15 1012.5 974.4 128
16 16.05 В 3 н/о н/о +15.2 +4.8 50 +15 +15 1011.9 973.8 82
17 16.05 СВ 3 н/о н/о +15.0 +5.6 53 +14 +14 1011.4 973.4 38
18 16.05 В 3
{9}
н/о н/о +14.6 +5.4 54 +14 +14 1011.2 973.1 +16.2 22
19 16.05 СВ 2 н/о н/о +13.9 +6.2 60 +14 +14 1011.3 973.1 5
20 16.05 В 2 н/о н/о +12.9 +5.6 61 +12 +12 1011.2 972.9
21 16.05 В 2 н/о н/о +11.5 +5.4 66 +11 +11 1011.2 972.7
22 16.05 В 2 н/о н/о +9.8 +5.5 75 +8 +8 1011.1 972.4
23 16.05 В 2 н/о н/о +9.3 +5.8 79 +8 +8 1010.8 972.0
00 17.05 В 2 н/о н/о +8.5 +5.6 82 +7 +7 1010.5 971.6 189
01 17.05 СВ 2 н/о н/о +6.5 +4.7 88 +4 +4 1009.9 970.7
02 17.05 В 1 н/о н/о +7.8 +6.0 88 +7 +7 1008.9 970.0
03 17.05 СВ 2 н/о н/о +8.0 +6.0 87 +6 +6 1008.3 969.5
04 17.05 В 1 н/о н/о +8.3 +6.2 87 +8 +8 1008.2 969.4
05 17.05 ЮВ 1 н/о н/о +8.5 +6.4 87 +8 +8 1008.2 969.4 1
06 17.05 ЮВ 2
{3}
н/о н/о +8.9 +6.5 85 +7 +7 1008.0 969.3 +6.2 12
07 17.05 Ю 2 н/о н/о +9.8 +6.8 82 +8 +8 1007.6 969.0 33
08 17.05 ЮВ 2 н/о н/о +11.0 +7.2 77 +10 +10 1006.8 968.4 67
09 17.05 ЮВ 2 н/о н/о +12.4 +7.5 72 +12 +12 1006.5 968.3 91
10 17.05 Ю 3 н/о н/о +14.9 +7.8 62 +14 +14 1005.7 967.8 179
11 17.05 Ю 3 н/о н/о +15.4 +7.4 59 +15 +15 1005.2 967.5 153
12 17.05 ЮЗ 3 н/о н/о +15.3 +7.6 60 +15 +15 1005.2 967.5 130
13 17.05 Ю 2 н/о н/о +16.0 +7.6 57 +16 +16 1005.0 967.4 134
14 17.05 ЮЗ 3 н/о н/о +16.6 +7.2 54 +16 +16 1004.5 967.0 157
15 17.05 Ю 2 н/о н/о +16.6 +7.1 53 +17 +17 1004.6 967.0 82
16 17.05 Ю 2 н/о н/о +16.5 +7.3 54 +17 +17 1004.4 966.8 90
17 17.05 ЮВ 2 н/о н/о +17.1 +7.3 52 +17 +17 1004.2 966.6 83
18 17.05 Ю 1
{6}
н/о н/о +16.2 +7.9 58 +17 +17 1004.2 966.6 +17.1 40
19 17.05 СВ 1 н/о н/о +14.4 +8.5 68 +15 +15 1004.5 966.6 14
20 17.05 СВ 2 н/о н/о +10.6 +8.3 86 +9 +9 1005.6 967.2 1
21 17.05 С 2 н/о н/о +8.9 +7.4 90 +7 +7 1005.9 967.2
22 17.05 С 2 н/о н/о +8.2 +7.1 93 +6 +6 1006.0 967.2
23 17.05 штиль 0 н/о н/о +9.0 +7.7 92 +8 +8 1006.3 967.7
00 18.05 ЮВ 1 н/о н/о +8.8 +7.7 93 +8 +8 1006.2 967.6 127
01 18.05 ЮЗ 1 н/о н/о +9.4 +8.3 93 +9 +9 1006.2 967.6
02 18.05 штиль 0 н/о н/о +9.0 +7.9 93 +8 +8 1006.3 967.6
03 18.05 В 1 н/о н/о +9.0 +8.0 93 +8 +8 1006.2 967.6
04 18.05 штиль 0 н/о н/о +9.1 +8.1 93 +8 +8 1006.2 967.6
05 18.05 штиль 0 н/о н/о +9.3 +8.5 95 +8 +8 1006.3 967.7 1
06 18.05 ЮЗ 1
{2}
н/о н/о +10.2 +9.4 95 +10 +10 1006.5 968.1 +8.1 10
07 18.05 ЮЗ 2 н/о н/о +11.8 +9.9 88 +11 +11 1006.2 968.0 58
08 18.05 ЮЗ 2 н/о н/о +12.8 +9.4 80 +12 +12 1006.5 968.4 88
09 18.05 Ю 1 н/о н/о +14.6 +8.8 68 +15 +15 1006.2 968.3 150
10 18.05 Ю 3 н/о н/о +15.8 +8.3 61 +15 +15 1005.9 968.2 150
11 18.05 ЮЗ 3 н/о н/о +16.3 +8.6 60 +16 +16 1005.9 968.3 173
12 18.05 В 1 н/о н/о +17.2 +8.6 57 +18 +18 1005.5 968.0 183
13 18.05 ЮЗ 1 н/о н/о +17.8 +8.2 53 +19 +19 1005.5 968.0 133
14 18.05 ЮЗ 3 н/о н/о +18.9 +9.3 54 +20 +20 1004.9 967.7 215
15 18.05 З 3 н/о н/о +17.9 +9.5 58 +18 +18 1005.1 967.7 133
16 18.05 В 7 н/о н/о +14.6 +9.3 70 +13 +13 1005.6 967.7 69
17 18.05 СВ 2 н/о н/о +13.7 +12.3 91 +13 +13 1005.8 967.8 29
18 18.05 С 3
{11}
н/о н/о +12.8 +11.2 90 +11 +11 1006.1 968.0 +19.0 31
19 18.05 СВ 2 н/о н/о +12.4 +11.3 93 +11 +11 1006.6 968.4 10
20 18.05 СВ 3 н/о н/о +12.2 +11.1 93 +11 +11 1007.0 968.8
21 18.05 СВ 2 н/о н/о +12.0 +10.7 92 +11 +11 1007.0 968.8
22 18.05 СВ 2 н/о н/о +11.8 +10.5 92 +11 +11 1007.0 968.7
23 18.05 СВ 2 н/о н/о +11.3 +10.4 94 +10 +10 1006.7 968.4
00 19.05 СВ 1 н/о н/о +10.9 +10.1 95 +10 +10 1006.7 968.3 144
01 19.05 С 2 н/о н/о +10.8 +10.1 95 +9 +9 1006.4 968.1
02 19.05 штиль 0 н/о н/о +10.5 +9.9 96 +10 +10 1006.2 967.9
03 19.05 СВ 1 н/о н/о +10.4 +9.7 95 +10 +10 1006.0 967.6
04 19.05 С 1 н/о н/о +10.5 +9.8 95 +10 +10 1006.0 967.6
05 19.05 н/о н/о +10.6 +10.0 96 1006.0 967.6 1
06 19.05 С 1
{2}
н/о н/о +11.2 +10.6 96 +11 +11 1006.0 967.7 +10.2 9
07 19.05 З 1 н/о н/о +12.0 +11.2 95 +12 +12 1006.0 967.8 15

 

Местоположение метеостанции Бюзеноль (Бельгия): широта 49.62 долгота 5.58 высота над уровнем моря 322 м.

В архиве по умолчанию представлена погода в Бюзеноле за последнюю неделю. Архивные данные за месяц целиком и за предыдущие месяцы, начиная с января 2011 года, Вы можете получить, выбрав интересующий диапазон дат из раскрывающегося списка и нажав кнопку "Ввод!".


*Определитесь, кто Вы:
робот инопланетянин человек

Внимание! Время в таблицах - всемирное. Для получения местного времени необходимо прибавить поправку, которая равна 1 ч.

Смотрите также архив погоды в соседних городах и на ближайших метеорологических станциях:

Погода в Люксембурге (Люксембург) (45 км)
Погода в Сент-Губерте (Бельгия) (47 км)
Погода в Гумане (Бельгия) (69 км)
Погода в Чарвилле (Франция) (71 км)
Погода в Трире (Германия) (80 км)
Погода в Мец-Нанси аэропорту (Франция) (86 км)
Погода в Берусе (Германия) (88 км)
Погода в Дурбе (Бельгия) (88 км)
Погода во Флорене (Бельгия) (95 км)
Погода в Спа (Бельгия) (99 км)

Пояснения к столбцам:

Ветер - указаны скорость ветра в м/с - средняя за 10 мин, порывы в срок и между сроками (в фигурных скобках) и направление, откуда дует ветер: С - северный, СВ - северо-восточный, В - восточный, ЮВ - юго-восточный, Ю - южный, ЮЗ - юго-западный, З - западный, СЗ - северо-западный.
Видимость - горизонтальная дальность видимости в метрах или километрах. При видимости от 1 до 10 км при отсутствии осадков обычно наблюдается дымка, при ухудшении видимости до 1 км и менее - туман. В сухую погоду видимость может ухудшаться дымом, пылью или мглою.
Явления - указаны атмосферные явления, наблюдавшиеся в срок или в последний час перед сроком; фигурными скобками обозначены явления, наблюдавшиеся между сроками (за 1-3 часа до срока); квадратными скобками обозначены град или гололедные отложения с указанием их диаметра в мм.
Облачность - указаны через наклонную черту общая и нижняя облачность в баллах и высота нижней границы облаков в метрах; квадратными скобками обозначены формы облаков: Ci - перистые, Cs - перисто-слоистые, Cc - перисто-кучевые, Ac - высококучевые, As - высокослоистые, Sc - слоисто-кучевые, Ns - слоисто-дождевые, Cu - кучевые, Cb - кучево-дождевые. Подробнее классификацию облаков см. в Атласе облаков (PDF).
T - Температура воздуха - температура, измеренная на высоте 2 м над землей.
Td - Температура точки росы - температура, при понижении до которой содержащийся в воздухе водяной пар достигнет насыщения.
f - Относительная влажность воздуха - влажноcть воздуха, измеренная на высоте 2 м над землей.
Te - Эффективная температура - температура, которую ощущает одетый по сезону человек в тени. Характеристика душности погоды. При расчете учитывается влияние влажности воздуха и скорости ветра на теплоощущения человека.
Tes - Эффективная температура на солнце - температура, которую ощущает человек, с поправкой на солнечный нагрев. Характеристика знойности погоды. Зависит от высоты солнца над горизонтом, облачности и скорости ветра. Ночью, в пасмурную погоду, а также при ветре 12 м/с и более поправка равна нулю.
P - Атмосферное давление - приведенное к уровню моря атмосферное давление.
Po - Атмосферное давление - измеренное на уровне метеостанции атмосферное давление.
Tmin - Минимальная температура - минимум температуры воздуха на высоте 2 м над землей.
Tmax - Максимальная температура - максимум температуры воздуха на высоте 2 м над землей.
R - Количество осадков - Количество выпавших осадков за период времени, мм. При наведении курсора мыши на число - период времени, за который выпало указанное количество осадков.
R24 - Количество осадков - Количество выпавших осадков за 24 часа, мм.
S - Снежный покров - Высота снежного покрова, см. При наведении курсора мыши на число - состояние снежного покрова и степень покрытия местности в баллах.